Regional Weather Roundup
Issued by NWS

Home | Current Version | Previous Version | Text Only | Print | Product List | Glossary Off
Versions: 1 2 3 4 5 6 7 8 9 10 11 12 13 14 15 16 17 18 19 20 21 22 23 24 25 26 27 28 29 30 31 32 33 34 35 36 37 38 39 40 41 42 43 44 45 46 47 48 49 50

000
ASUS43 KMKX 081800
RWRWI

WISCONSIN REGIONAL WEATHER ROUNDUP
NATIONAL WEATHER SERVICE MILWAUKEE/SULLIVAN WI
1200 PM CST MON FEB 08 2016

NOTE: "FAIR" INDICATES FEW OR NO CLOUDS BELOW 12,000 FEET WITH NO
SIGNIFICANT WEATHER AND/OR OBSTRUCTIONS TO VISIBILITY.

WIZ001-002-006>008-014>016-023>028-081900-
NORTHWEST WISCONSIN

CITY           SKY/WX    TMP DP  RH WIND       PRES   REMARKS
SUPERIOR ARPT  CLOUDY    13   4  66 NW10G18   29.92R WCI   0
ASHLAND        LGT SNOW  18  12  77 NW7       29.84S WCI   9
6HR MIN TEMP:  17; 6HR MAX TEMP:  20; 6HR PCP: TRACE;

HAYWARD        LGT SNOW  13   6  74 VRB5G16   29.83S WCI   5
6HR MIN TEMP:  12; 6HR MAX TEMP:  13; 6HR PCP: TRACE;

SIREN          LGT SNOW  13   4  67 NW16      29.91R WCI  -4
CUMBERLAND     LGT SNOW  12   3  67 NW20      29.85R WCI  -6
RICE LAKE      LGT SNOW  13   5  70 NW12G18   29.87R WCI  -1
CHETEK         LGT SNOW  14   6  70 NW9G17    29.85R WCI   2
LADYSMITH      FLURRIES  18  10  72 NW15G21   29.80S WCI   3
EAU CLAIRE     NOT AVBL
MENOMONIE      FLURRIES  16   6  63 W16       29.87R WCI   1
NEW RICHMOND   CLOUDY    12   3  68 NW18G25   29.91R WCI  -6
OSCEOLA        CLOUDY    13   4  65 NW16G23   29.96R WCI  -3
$$

WIZ003>005-009-010-017-018-081900-
NORTH CENTRAL WISCONSIN

CITY           SKY/WX    TMP DP  RH WIND       PRES   REMARKS
MANITOWISH WTR LGT SNOW  18  13  81 N10G18    29.71R WCI   6
ARBOR VITAE    LGT SNOW  22  16  77 N15       29.69S WCI   8
WOODRUFF       LGT SNOW  22  16  77 N15       29.69S WCI   8
RHINELANDER    CLOUDY    22  15  75 NW10      29.67F WCI  11
6HR MIN TEMP:  20; 6HR MAX TEMP:  25; 6HR PCP: TRACE;

EAGLE RIVER    FLURRIES  20  12  70 N14G20    29.68R WCI   7
LAND O LAKES   LGT SNOW  20  13  76 N12G20    29.69S WCI   8
PHILLIPS       FLURRIES  19  11  74 N10G16    29.73S WCI   7
TOMAHAWK       CLOUDY    21  16  80 N8        29.70S WCI  11
MEDFORD        CLOUDY    17  14  85 NW14G23   29.71R FOG     WCI   3
MERRILL        CLOUDY    22  19  85 N13G18    29.70R WCI  10
$$

WIZ029-030-035-036-043>047-081900-
CENTRAL WISCONSIN

CITY           SKY/WX    TMP DP  RH WIND       PRES   REMARKS
WAUSAU         CLOUDY    26  18  71 N9        29.67R WCI  17
6HR MIN TEMP:  24; 6HR MAX TEMP:  27;

MOSINEE        CLOUDY    27  19  74 N14G20    29.69R WCI  15
MARSHFIELD     CLOUDY    19  11  70 NW17      29.71R WCI   4
6HR MIN TEMP:  18; 6HR MAX TEMP:  20;

STEVENS POINT  CLOUDY    26  18  72 NW9       29.68S WCI  16
WAUPACA        FLURRIES  30  22  70 W7        29.66F WCI  24
WAUTOMA        NOT AVBL
WISC RAPIDS    CLOUDY    22  13  68 NW12      29.72S WCI  10
6HR MIN TEMP:  20; 6HR MAX TEMP:  22;

CAMP DOUGLAS   NOT AVBL
$$

WIZ011>013-019>022-031-037>040-048>050-081900-
NORTHEAST WISCONSIN

CITY           SKY/WX    TMP DP  RH WIND       PRES   REMARKS
ANTIGO         CLOUDY    22  17  80 N15       29.65R WCI   9
SHAWANO        CLOUDY    33  25  71 N10       29.65R WCI  25
OCONTO         CLOUDY    31  31 100 N13       29.63S WCI  21
STURGEON BAY   CLOUDY    32  27  80 N17       29.63F WCI  21
6HR MIN TEMP:  32; 6HR MAX TEMP:  34;

GREEN BAY      LGT SNOW  32  26  78 NW10      29.63S WCI  24
6HR MIN TEMP:  30; 6HR MAX TEMP:  32; 6HR PCP:  0.01;

MANITOWOC      NOT AVBL
APPLETON       FLURRIES  27  21  80 W14       29.62F WCI  15
CLINTONVILLE   CLOUDY    32  23  69 NW9       29.65R WCI  24
OSHKOSH        CLOUDY    26  19  74 W13       29.65S WCI  15
6HR MIN TEMP:  24; 6HR MAX TEMP:  27;

$$

WIZ032>034-041-042-053>061-081900-
SOUTHWEST WISCONSIN

CITY           SKY/WX    TMP DP  RH WIND       PRES   REMARKS
LA CROSSE      CLOUDY    19   9  65 NW21      29.83R WCI   3
6HR MIN TEMP:  17; 6HR MAX TEMP:  19; 6HR PCP: TRACE;

SPARTA         CLOUDY    19  12  73 NW12      29.80S WCI   7
VIROQUA        CLOUDY    18  11  74 NW16      29.75S WCI   3
BOSCOBEL       CLOUDY    22  12  65 N10G18    29.79S WCI  11
6HR MIN TEMP:  19; 6HR MAX TEMP:  22; 6HR PCP: TRACE;

PRAIRIE DU CHI CLOUDY    21  11  63 NW15G21   29.81R WCI   8
PLATTEVILLE    CLOUDY    21  15  77 NW14      29.75R WCI   8
$$

WIZ056-057-062-063-064-067-068-081900-
SOUTH CENTRAL WISCONSIN

CITY           SKY/WX    TMP DP  RH WIND       PRES   REMARKS
REEDSBURG      CLOUDY    20  14  76 NW15      29.72S WCI   7
BARABOO/DELLS  CLOUDY    21  14  73 NW8G18    29.71S WCI  12
LONE ROCK      NOT AVBL
MINERAL POINT  CLOUDY    23  16  74 NW14G21   29.72R WCI  11
MADISON        CLOUDY    23  15  71 NW13G20   29.70S WCI  11
6HR MIN TEMP:  21; 6HR MAX TEMP:  25; 6HR PCP: TRACE;

MIDDLETON      CLOUDY    24  17  74 NW10G16   29.70S WCI  14
WATERTOWN      CLOUDY    24  19  81 NW12G17   29.67F WCI  13
MONROE         CLOUDY    25  18  74 NW12G17   29.69S WCI  14
JANESVILLE     CLOUDY    27  18  69 NW12      29.69S WCI  16
$$

WIZ051-052-058>065-066-070>072-081900-
SOUTHEAST WISCONSIN

CITY           SKY/WX    TMP DP  RH WIND       PRES   REMARKS
MILWAUKEE      LGT SNOW  27  22  81 NW14      29.65S WCI  16
6HR MIN TEMP:  27; 6HR MAX TEMP:  34; 6HR PCP:  0.14;

WAUKESHA       CLOUDY    23  18  80 W14       29.66S WCI  11
MILWAUKEE/TIMM CLOUDY    27  19  74 NW16      29.66S WCI  14
RACINE         LGT SNOW  28  21  75 NW15      29.66S WCI  16
6HR MIN TEMP:  28; 6HR MAX TEMP:  33; 6HR PCP: TRACE;

BURLINGTON     CLOUDY    26  19  77 NW13G18   29.67S WCI  14
KENOSHA        CLOUDY    29  23  78 NW12      29.65S WCI  19
6HR MIN TEMP:  28; 6HR MAX TEMP:  32; 6HR PCP: TRACE;

FOND DU LAC    MIX PCPN  26  19  74 NW13      29.66S WCI  15
6HR MIN TEMP:  25; 6HR MAX TEMP:  29; 6HR PCP: TRACE;

SHEBOYGAN      LGT SNOW  27  21  78 NW13      29.63F WCI  16
6HR MIN TEMP:  26; 6HR MAX TEMP:  31; 6HR PCP: TRACE;

WEST BEND      CLOUDY    27  19  74 NW13      29.65S WCI  16
JUNEAU         CLOUDY    23  17  77 NW9G17    29.68S WCI  13
$$

LSZ147-162-081900-
LAKE SUPERIOR

STATION/POSITION TIME  TEMP    WIND        PRES    WAVE
                       AIR SEA DIR/SP/G            HT/PER
                 (UTC) (F)     (DEG/KT/KT) (MB)    (FT/S)
DEVILS ISLAND    1700   15     330/ 14/ 17 1011.9R
PORT WING        1700   17     320/ 17/ 21 1011.9R
SAXON HARBOR     1700   19                 1009.8R
$$

LMZ867-665-643>646-081900-
LAKE MICHIGAN

STATION/POSITION TIME  TEMP    WIND        PRES    WAVE
                       AIR SEA DIR/SP/G            HT/PER
                 (UTC) (F)     (DEG/KT/KT) (MB)    (FT/S)
CHAMBERS ISLAND  1700   31     360/ 13/ 18 1004.1R
NORTHPORT PIER   1700   31     340/ 14/ 17 1003.7R
ALGOMA LAKESHORE 1711          340/  8/  9   N/A
KEWAUNEE LAKESHO 1700   33     290/  6/ 12 1002.4R
SHEBOYGAN LAKESH 1700   28     290/ 16/ 18 1004.4R
PORT WASHINGTON  1700   28     300/ 11/ 14 1004.7
MILWAUKEE LAKESH 1710   27     290/ 10/ 16   N/A
KENOSHA   LAKESH 1700   30     310/ 11/ 15 1004.4R
$$

TC  - TEMPERATURE IN CELSIUS
VSB - VISIBILITY IN STATUTE MILES
WCI - WIND CHILL INDEX
HX  - HEAT INDEX




USA.gov is the U.S. government's official web portal to all federal, state and local government web resources and services.